sat.trackr.live / text

‹ back to catalog

STARLINK-32508

NORAD 62158 · 2024-224V

PAYLOAD ACTIVE UNKNOWN

§ Identity

Operator
Country
US
Launch date
2024-11-30
Launch site
AFETR
Launch vehicle
Mass (kg)
RCS (m²)

Purposes: comms

External: N2YO · Heavens-Above · Gunter

§ Orbital elements

Epoch: 2026-09-21T00:33:57.671424Z

Period
94.27 min
Inclination
43.0025°
Eccentricity
0.0001463
Mean motion
15.27581070 rev/d
Perigee alt
482.0 km
Apogee alt
484.0 km
Semi-major
6,861.2 km
B*
3.8224e-4
RAAN
134.9743°
Arg perigee
268.5074°
Mean anomaly
91.5610°
Rev number
10,235

§ Raw data

STARLINK-325081 62158U 24224V   26264.02358416  .00010271  00000+0  38224-3 0  99972 62158  43.0025 134.9743 0001463 268.5074  91.5610 15.27581070102354

JSON: /api/v1/satellites/62158 · /tle

For live sub-satellite position, see the globe view (requires WebGL).

§ Visibility from observer

Set your observer location to see the next 7 days of passes ≥ 10°. The values pass through the URL so the page stays shareable.

No JS? Fill the form by hand. The geolocation button needs JavaScript.